Temp
8 7 7 7 6 6 5 5 6 6 6 6 6 7 6 6 6 6 6 7 6 5 4 5 4 5 4 4 4 4 4 4 4 4 4 4 4 4 3 4 4 4 4
7 7 7 7 6 6 5 5 4 5 6 6 6 6 6 5 6 6 6 6 6 5 4 4 4 4 4 4 3 4 4 3 3 3 3 4 4 4 3 3 3 3 3
7 7 7 6 6 6 6 5 5 4 5 6 6 6 5 6 6 6 6 6 5 5 4 4 3 3 3 3 2 2 3 3 3 3 3 3 3 3 3 3 3 3 3
7 6 6 5 5 5 6 5 5 5 4 5 5 5 6 6 6 5 5 5 5 4 4 3 3 3 3 3 2 3 3 3 3 3 2 2 2 2 2 2 2 2 2
6 6 6 5 4 3 2 4 4 5 4 4 5 5 5 5 5 5 5 5 4 4 4 3 3 3 2 2 2 2 2 2 2 2 2 2 2 2 2 2 2 2 2
5 4 4 4 5 4 3 3 2 3 3 3 4 5 5 5 5 5 5 5 5 4 4 3 2 2 2 2 2 2 2 2 2 2 2 2 2 1 1 2 2 2 2
3 3 3 3 4 4 4 4 3 2 2 2 4 4 5 5 5 5 5 5 5 4 4 3 2 2 2 1 2 2 1 1 1 1 1 1 1 1 1 1 1 1 1
2 2 2 3 2 3 3 3 2 3 2 2 3 4 4 4 4 5 5 5 5 4 3 2 2 1 1 1 1 1 1 1 1 1 1 1 1 0 0 0 0 1 0
2 2 3 3 1 1 2 3 2 2 2 3 2 3 3 4 4 4 4 5 4 3 3 2 1 1 1 1 1 1 1 1 1 1 1 0 -0 -0 0 -0 -1 -1 -1
1 1 1 1 0 1 1 2 2 1 2 2 2 3 3 3 4 4 4 4 3 2 1 1 1 1 1 0 1 1 0 0 0 0 0 -0 -1 -0 -0 -1 -2 -2 -3
-0 -0 0 0 -0 0 -0 1 1 1 1 2 2 2 3 3 4 4 4 4 2 1 2 1 1 1 0 0 0 0 0 -0 -0 -0 -1 -1 -1 -1 -2 -2 -3 -3 -4
-1 -1 -2 -1 -1 -0 -0 -1 1 1 -0 3 2 2 3 3 4 4 4 2 2 1 1 1 0 1 -0 -0 -0 -0 -0 -0 -1 -1 -1 -1 -1 -2 -3 -3 -3 -4 -4
-2 -2 -2 -2 -1 -0 -1 -1 -1 -0 1 2 2 2 3 3 3 4 2 2 1 1 2 1 0 -0 -0 -0 -1 -1 -1 -1 -1 -1 -1 -2 -2 -3 -3 -4 -4 -5 -5
-2 -3 -3 -2 -1 -1 -1 -0 -0 -0 2 2 2 2 3 3 3 3 2 1 1 1 0 0 -1 -1 -1 -1 -1 -1 -1 -2 -2 -2 -2 -3 -3 -3 -4 -4 -5 -5 -6
-4 -3 -3 -2 -1 -1 -1 -1 -0 1 1 1 2 2 2 2 2 2 2 1 1 0 -1 -1 -1 -1 -1 -2 -2 -2 -2 -2 -2 -3 -3 -4 -4 -4 -5 -5 -6 -6 -7
-4 -4 -3 -2 -1 -2 -1 -1 0 0 1 2 1 1 0 1 2 1 1 1 -0 -1 -1 -1 -2 -3 -2 -2 -2 -2 -2 -2 -3 -4 -4 -4 -5 -5 -6 -6 -7 -9 -10
-4 -4 -3 -3 -2 -2 -1 -0 -0 1 1 1 1 1 1 1 0 -0 -0 -1 -1 -2 -2 -2 -2 -2 -2 -3 -3 -3 -3 -3 -4 -4 -5 -5 -6 -6 -7 -7 -8 -10 -11
-2 -3 -2 -2 -2 -1 -1 -0 -0 0 1 1 1 1 0 0 0 -1 -1 -2 -2 -2 -2 -2 -2 -3 -3 -3 -3 -3 -4 -4 -5 -5 -5 -6 -6 -7 -8 -8 -9 -10 -11
-2 -2 -2 -2 -1 -1 -1 -1 -0 0 1 0 1 1 0 -1 -1 -3 -2 -2 -3 -3 -3 -3 -3 -3 -3 -3 -4 -4 -4 -5 -5 -6 -6 -7 -8 -9 -9 -10 -10 -11 -12
-1 -1 -1 -1 -1 -1 1 1 0 1 0 1 1 -0 -1 -1 -2 -3 -3 -3 -3 -3 -3 -3 -3 -4 -4 -4 -4 -5 -5 -5 -6 -7 -8 -8 -9 -9 -10 -11 -11 -12 -12
-1 0 -1 -2 -1 -0 0 0 -0 -0 -2 -1 -2 -2 -2 -3 -3 -3 -3 -3 -3 -3 -3 -4 -4 -3 -4 -4 -5 -5 -5 -6 -6 -7 -8 -9 -10 -11 -11 -12 -13 -13 -13
-1 -1 -1 -1 -1 -1 -1 -1 -2 -3 -2 -2 -1 -2 -3 -3 -3 -3 -3 -3 -3 -3 -4 -4 -4 -4 -5 -5 -5 -6 -6 -7 -7 -8 -9 -10 -11 -11 -12 -13 -13 -13 -13
-1 -1 -2 -2 -1 -2 -2 -2 -2 -2 -2 -3 -3 -3 -3 -3 -3 -3 -3 -3 -3 -4 -4 -4 -5 -5 -5 -6 -6 -7 -8 -8 -9 -9 -10 -11 -12 -12 -12 -13 -13 -13 -13
-1 -1 -1 -2 -2 -2 -3 -3 -3 -3 -3 -3 -3 -3 -3 -3 -3 -3 -3 -4 -4 -4 -5 -5 -5 -5 -6 -7 -7 -8 -8 -9 -10 -10 -11 -11 -12 -12 -13 -13 -13 -14 -14
-1 -1 -2 -2 -2 -2 -3 -3 -3 -4 -3 -3 -3 -2 -2 -3 -3 -4 -4 -4 -5 -5 -5 -5 -6 -6 -7 -7 -8 -8 -9 -10 -11 -11 -12 -12 -12 -13 -13 -13 -14 -14 -14
-1 -1 -1 -2 -2 -3 -3 -3 -3 -2 -2 -2 -2 -3 -3 -4 -4 -4 -5 -5 -5 -5 -6 -6 -7 -7 -7 -8 -8 -9 -10 -11 -11 -12 -12 -12 -13 -13 -13 -13 -13 -14 -14
Height
3063 3064 3065 3069 3072 3078 3082 3084 3087 3088 3095 3097 3097 3102 3105 3103 3107 3108 3110 3111 3114 3115 3115 3116 3116 3117 3117 3117 3117 3117 3117 3116 3115 3114 3113 3112 3111 3109 3107 3104 3101 3099 3097
3050 3054 3056 3059 3062 3066 3071 3075 3078 3077 3082 3089 3092 3095 3096 3097 3101 3104 3105 3105 3107 3109 3109 3110 3111 3112 3112 3112 3113 3112 3113 3111 3110 3109 3108 3107 3107 3105 3102 3100 3096 3092 3089
3039 3042 3046 3049 3052 3055 3060 3064 3068 3072 3072 3079 3086 3085 3088 3089 3095 3097 3099 3100 3103 3104 3105 3105 3106 3107 3107 3106 3106 3108 3107 3107 3105 3105 3103 3101 3100 3097 3096 3093 3090 3086 3084
3032 3033 3035 3038 3042 3045 3049 3054 3059 3063 3067 3069 3075 3078 3082 3085 3089 3092 3093 3095 3097 3098 3099 3101 3101 3102 3102 3102 3102 3102 3102 3102 3101 3100 3098 3096 3093 3090 3089 3086 3082 3079 3075
3025 3026 3029 3031 3033 3036 3039 3042 3047 3051 3057 3059 3065 3069 3074 3078 3083 3085 3087 3089 3091 3093 3095 3095 3095 3096 3097 3097 3096 3097 3097 3096 3095 3094 3092 3090 3087 3083 3080 3078 3076 3072 3067
3022 3023 3024 3025 3027 3029 3031 3032 3036 3040 3045 3048 3054 3058 3065 3071 3077 3079 3081 3083 3085 3087 3088 3089 3090 3091 3091 3092 3092 3091 3091 3091 3089 3088 3086 3083 3079 3074 3070 3065 3064 3060 3060
3017 3017 3016 3016 3017 3019 3022 3026 3027 3031 3035 3039 3042 3050 3056 3064 3070 3074 3075 3077 3079 3080 3081 3083 3085 3085 3085 3086 3085 3086 3086 3085 3083 3081 3079 3076 3071 3067 3061 3055 3051 3047 3047
3012 3010 3009 3007 3008 3009 3010 3014 3019 3022 3026 3029 3035 3042 3044 3056 3063 3067 3069 3070 3072 3074 3075 3077 3079 3079 3079 3080 3080 3080 3080 3078 3077 3074 3071 3068 3063 3059 3053 3047 3040 3035 3033
3006 3004 3001 2999 3001 3002 3003 3005 3009 3013 3016 3021 3029 3031 3036 3048 3055 3059 3061 3063 3065 3066 3069 3072 3073 3074 3074 3074 3075 3074 3073 3071 3069 3067 3063 3060 3055 3050 3044 3038 3032 3024 3015
2998 2996 2993 2994 2995 2995 2995 2998 3000 3005 3010 3016 3018 3021 3033 3042 3048 3051 3054 3057 3059 3061 3064 3066 3068 3069 3068 3069 3068 3067 3066 3064 3062 3059 3054 3049 3045 3040 3034 3028 3023 3016 3008
2991 2989 2986 2988 2988 2989 2989 2991 2994 2998 3000 3005 3008 3018 3030 3037 3041 3045 3048 3050 3054 3056 3060 3062 3061 3062 3063 3062 3061 3061 3059 3056 3053 3049 3045 3040 3035 3030 3024 3018 3012 3006 2999
2983 2980 2979 2982 2983 2983 2983 2984 2987 2989 2991 2995 3006 3018 3025 3030 3035 3039 3042 3045 3049 3051 3054 3056 3057 3057 3056 3056 3056 3054 3052 3049 3045 3040 3035 3030 3024 3019 3013 3007 3000 2994 2986
2977 2973 2973 2976 2975 2976 2976 2977 2981 2982 2986 2994 3006 3015 3021 3026 3031 3034 3038 3041 3044 3048 3049 3049 3051 3051 3051 3051 3049 3047 3043 3040 3035 3030 3025 3020 3014 3009 3002 2996 2989 2981 2974
2967 2964 2966 2969 2968 2969 2970 2972 2976 2980 2987 2995 3003 3011 3016 3022 3026 3030 3033 3037 3040 3042 3042 3043 3045 3046 3046 3044 3042 3039 3035 3031 3026 3021 3015 3010 3004 2997 2991 2984 2976 2969 2962
2955 2957 2960 2960 2962 2962 2966 2970 2974 2980 2986 2993 3000 3006 3012 3018 3023 3026 3030 3033 3035 3037 3038 3039 3041 3041 3040 3037 3034 3030 3026 3022 3017 3011 3006 3000 2993 2986 2979 2971 2964 2956 2948
2947 2952 2954 2953 2955 2958 2963 2968 2972 2978 2985 2992 2998 3004 3009 3014 3019 3022 3026 3030 3030 3032 3034 3035 3035 3034 3033 3029 3025 3022 3017 3012 3007 3002 2996 2990 2984 2976 2969 2960 2952 2945 2936
2941 2944 2946 2948 2950 2956 2961 2966 2971 2977 2985 2990 2996 3002 3007 3011 3016 3020 3022 3022 3026 3029 3030 3029 3028 3027 3024 3020 3017 3012 3008 3003 2998 2992 2986 2979 2972 2965 2957 2949 2941 2935 2929
2939 2941 2942 2945 2950 2955 2959 2964 2971 2978 2984 2989 2994 2999 3004 3008 3011 3015 3018 3021 3023 3024 3024 3023 3021 3018 3016 3012 3008 3004 2999 2994 2988 2982 2975 2968 2960 2953 2944 2936 2930 2924 2918
2940 2940 2943 2946 2949 2954 2959 2966 2973 2978 2983 2988 2992 2997 3000 3001 3006 3011 3015 3018 3018 3019 3018 3016 3014 3011 3008 3005 3000 2995 2990 2984 2978 2972 2965 2958 2948 2940 2933 2926 2919 2914 2909
2944 2945 2946 2949 2953 2956 2960 2966 2972 2978 2982 2987 2992 2994 2998 3001 3007 3010 3013 3014 3014 3013 3011 3009 3007 3004 3000 2996 2992 2987 2981 2974 2968 2963 2955 2947 2939 2931 2925 2917 2910 2904 2899
2949 2952 2954 2955 2957 2960 2964 2972 2973 2982 2984 2988 2993 2994 2995 3001 3006 3010 3010 3009 3009 3008 3006 3004 3001 2997 2994 2989 2984 2978 2971 2964 2957 2951 2944 2937 2929 2922 2916 2908 2902 2897 2891
2956 2955 2949 2956 2955 2962 2969 2973 2977 2979 2984 2989 2994 2997 3001 3005 3006 3006 3006 3005 3004 3003 3001 2998 2994 2990 2985 2980 2975 2969 2961 2954 2946 2940 2933 2927 2920 2913 2907 2901 2896 2891 2885
2964 2965 2966 2968 2972 2976 2979 2984 2986 2988 2990 2993 2997 2999 3000 3001 3002 3003 3003 3001 3000 2998 2995 2992 2988 2984 2978 2972 2966 2960 2953 2945 2938 2932 2925 2917 2911 2905 2900 2895 2889 2884 2879
2972 2972 2973 2975 2976 2978 2980 2983 2987 2990 2992 2994 2996 2998 3000 3000 3000 3000 2999 2998 2995 2992 2989 2986 2981 2976 2970 2963 2957 2951 2944 2938 2931 2924 2918 2910 2904 2898 2893 2889 2885 2880 2874
2979 2979 2980 2981 2982 2984 2987 2989 2992 2993 2995 2996 2998 2998 2998 2999 2999 2997 2995 2993 2990 2987 2983 2979 2973 2967 2962 2955 2948 2942 2935 2927 2920 2914 2909 2904 2899 2895 2890 2885 2880 2875 2870
2982 2983 2983 2985 2987 2989 2991 2992 2994 2995 2996 2997 2997 2998 2998 2997 2996 2993 2991 2988 2985 2981 2976 2970 2965 2959 2952 2946 2940 2934 2927 2920 2913 2908 2902 2898 2894 2889 2885 2881 2877 2872 2866
Wind_Speed
31 33 36 38 46 52 47 43 50 51 45 42 41 37 33 36 33 32 30 30 25 25 26 26 24 22 18 18 18 19 18 17 16 17 18 19 21 23 24 26 27 28 28
33 33 35 36 39 49 56 52 48 53 55 48 44 39 37 36 32 32 31 31 29 25 26 27 25 23 20 18 21 20 20 18 17 18 19 22 23 24 27 28 30 31 31
34 34 36 37 38 41 47 61 58 55 55 52 45 45 42 41 35 34 31 29 28 25 26 26 24 26 23 22 27 23 22 19 18 19 22 26 27 29 30 31 32 33 33
32 32 30 36 36 39 41 42 58 62 58 56 51 50 47 44 37 33 30 29 26 27 27 27 28 29 25 24 23 23 21 20 20 21 24 27 30 33 33 34 36 36 36
23 23 27 34 39 39 38 40 43 51 55 61 58 56 52 47 41 35 32 30 28 29 28 29 30 30 26 23 23 24 22 22 22 24 27 30 33 36 38 37 36 37 38
19 19 19 24 30 36 45 45 41 43 47 52 57 60 55 50 45 38 34 31 30 30 31 31 31 30 28 26 27 24 23 23 25 27 30 33 36 39 42 44 42 41 38
20 23 23 28 29 29 35 41 48 42 45 50 52 56 58 52 46 40 34 32 30 31 31 33 30 28 28 28 26 24 24 25 27 30 33 36 39 41 44 46 45 46 42
30 34 38 39 37 37 33 32 46 50 47 50 47 44 54 52 47 41 36 33 30 28 31 33 29 27 27 25 26 25 25 28 30 33 37 39 42 43 46 47 48 48 47
24 31 38 40 34 31 35 32 35 51 52 49 40 45 48 44 42 38 36 33 29 30 31 28 30 29 26 28 27 26 27 30 33 37 40 41 43 45 46 46 46 48 52
25 30 33 34 30 26 29 31 31 41 46 46 44 47 41 35 36 36 33 29 29 31 30 26 26 27 30 28 27 27 30 33 36 40 42 44 45 46 46 46 45 46 50
25 31 39 32 25 22 26 29 27 30 39 42 47 45 37 37 36 33 31 29 30 28 30 27 27 27 29 27 27 30 32 36 39 42 44 45 46 46 45 45 46 47 50
30 36 34 28 26 25 23 29 27 32 37 43 42 34 34 34 33 31 28 27 28 26 23 28 27 28 27 28 29 32 35 38 41 44 45 45 46 45 46 47 48 49 51
23 29 33 26 23 23 23 27 29 35 39 38 33 32 32 32 31 29 27 27 27 22 31 24 29 27 28 28 31 34 37 40 44 44 44 45 45 45 46 48 50 51 54
29 33 35 30 22 20 20 30 33 34 30 31 33 31 31 31 29 27 21 23 23 27 25 24 25 27 27 30 34 36 40 43 42 42 43 43 44 46 48 50 51 54 55
32 32 30 25 26 18 27 30 30 25 27 30 31 30 29 27 26 24 25 24 24 27 25 26 27 26 29 33 35 40 41 40 41 41 42 43 45 47 50 52 54 55 55
29 28 26 26 26 21 30 27 22 25 27 30 29 27 28 27 23 22 24 28 25 23 23 23 25 29 31 35 39 37 38 39 40 40 41 43 45 47 50 51 52 51 50
23 28 27 23 18 22 21 19 23 26 29 28 27 27 24 22 24 25 24 18 19 23 24 26 27 30 34 34 35 36 37 37 39 41 43 45 46 49 50 50 50 47 44
6 12 14 15 20 21 21 24 26 27 28 28 25 24 23 24 27 20 20 20 20 22 22 26 30 31 30 31 34 35 36 38 40 42 44 47 49 49 49 50 49 46 42
5 10 14 21 21 21 25 26 27 27 27 23 26 29 32 24 18 18 17 17 17 21 25 26 26 27 30 30 33 35 37 39 41 43 46 47 48 48 47 47 46 42 35
4 9 16 17 19 27 31 30 28 31 27 30 29 27 18 13 9 10 12 16 20 21 22 23 25 27 30 33 34 36 39 42 44 44 45 44 45 45 43 42 41 36 32
11 11 12 16 24 28 29 31 31 27 24 19 12 9 7 5 7 13 14 15 17 18 21 23 26 29 31 33 35 38 40 43 46 45 44 43 43 41 38 35 32 31 31
16 12 15 20 20 18 17 16 15 14 12 11 7 3 3 7 7 9 12 15 18 20 22 25 27 30 33 36 38 40 43 45 47 46 45 42 39 37 32 29 29 28 29
12 14 13 16 18 17 17 12 12 10 7 5 3 3 2 6 8 11 14 16 19 22 24 26 28 31 34 36 39 42 43 44 45 43 41 38 35 30 25 26 27 28 29
9 9 8 8 10 12 12 10 8 8 5 2 2 3 6 8 11 14 16 18 21 23 25 27 30 32 35 39 42 43 43 43 41 39 35 34 29 25 25 24 26 27 28
8 9 10 10 9 8 7 5 4 1 1 1 3 6 8 11 13 15 17 19 22 24 27 30 33 36 39 41 43 44 43 41 40 37 34 29 23 22 22 23 25 26 27
6 6 6 7 6 5 4 2 1 1 2 4 6 8 10 12 14 16 19 22 24 27 30 33 36 39 42 44 43 40 38 38 37 34 29 23 22 22 22 23 22 25 27
Wind_Direction
260 253 250 245 234 233 230 237 238 241 240 243 247 253 250 253 256 264 272 271 269 271 273 277 279 275 277 276 275 267 266 274 284 294 303 311 317 320 317 314 309 305 302
257 249 248 248 242 235 229 228 230 242 244 238 245 249 248 251 257 265 274 271 268 270 271 275 273 270 269 279 284 266 263 272 284 296 304 309 312 316 317 315 311 308 306
261 254 247 245 247 242 237 232 230 231 242 246 240 243 245 249 254 260 275 270 267 264 268 269 265 266 270 273 266 261 263 272 286 297 305 311 314 317 318 316 312 308 305
258 258 249 240 240 244 243 237 235 237 238 243 242 245 248 254 257 263 270 262 257 258 265 262 262 267 272 277 266 260 266 276 286 296 304 309 312 314 315 315 312 310 308
267 260 256 247 239 234 242 244 237 239 238 241 243 243 243 249 254 260 265 255 254 257 261 258 260 261 265 267 264 262 267 279 290 298 304 308 310 311 312 312 310 308 308
246 249 257 257 257 248 238 237 239 238 238 238 240 242 243 246 252 257 261 255 255 255 256 253 257 260 257 266 264 260 269 282 292 300 305 308 310 311 312 312 311 309 308
248 259 254 255 255 250 248 243 240 233 238 240 240 239 242 244 248 253 257 252 254 254 250 250 254 254 264 263 261 261 273 284 294 301 305 307 308 310 311 311 310 309 308
250 260 263 258 260 258 245 240 234 235 234 238 240 240 241 242 246 250 249 247 247 245 245 246 247 257 257 263 260 264 276 287 295 301 304 307 308 310 311 309 309 308 306
266 266 261 264 267 260 258 245 231 234 238 239 234 233 239 241 242 242 241 243 241 241 242 237 254 251 261 262 263 270 280 289 297 301 304 306 308 309 308 308 308 307 308
263 263 267 274 271 268 266 255 241 233 240 238 230 230 233 233 234 235 237 241 240 237 240 241 251 257 255 264 264 274 284 293 298 301 305 307 308 308 307 306 306 306 307
250 253 265 276 270 274 251 252 243 235 234 229 226 227 230 230 231 231 235 236 228 231 232 238 243 255 262 264 270 279 288 295 300 303 306 307 307 306 306 306 307 308 309
264 268 273 267 267 284 281 245 233 230 226 223 220 222 224 226 226 228 234 232 225 225 238 241 248 260 267 266 276 285 292 297 301 305 306 305 306 306 307 308 309 308 308
261 270 275 276 272 272 272 226 216 216 223 216 211 216 220 222 223 227 219 235 214 244 239 247 262 264 264 274 283 290 296 300 304 304 304 305 306 307 308 309 310 310 310
247 260 269 272 268 270 234 210 214 225 220 206 208 215 218 218 221 223 225 220 241 232 240 259 260 263 273 282 288 294 300 303 302 303 305 307 308 309 309 310 311 310 310
258 256 272 269 262 260 219 214 219 226 203 201 203 209 211 215 215 216 229 217 234 252 254 259 260 272 281 286 292 298 300 300 303 305 308 309 309 310 312 312 312 312 311
246 252 265 271 257 234 213 218 217 201 194 195 201 204 205 207 217 212 210 233 238 254 250 262 271 279 284 290 297 299 300 302 305 308 309 310 311 311 311 312 312 312 313
252 248 256 250 233 215 209 204 190 188 191 191 197 198 204 209 205 215 222 240 241 252 257 271 278 283 290 297 298 299 302 306 308 310 311 312 313 313 313 311 311 313 313
214 220 227 204 195 192 188 179 179 184 192 184 188 197 200 210 201 225 229 234 245 263 272 277 284 291 298 298 299 304 308 309 311 313 314 315 314 314 314 314 314 315 316
180 189 187 178 174 175 169 170 176 185 186 199 206 201 197 188 195 209 233 255 264 271 279 287 295 298 298 301 307 308 310 311 313 315 316 316 317 317 316 314 314 315 317
117 156 161 160 168 164 166 178 175 189 184 189 196 196 200 186 213 240 256 266 276 285 293 297 298 300 307 309 310 311 313 316 316 315 318 319 315 315 315 313 314 319 323
106 116 148 167 173 174 180 175 179 177 175 163 168 165 161 174 239 257 269 283 291 295 298 300 305 308 309 310 313 316 316 316 316 319 320 319 317 316 314 316 319 321 322
118 117 124 113 121 135 125 129 135 129 127 134 135 131 220 243 259 287 291 295 299 301 306 308 309 312 314 315 317 317 318 319 320 322 322 319 317 318 319 319 319 320 320
84 89 87 104 119 126 126 131 132 130 111 105 140 152 300 301 295 297 300 304 306 308 309 312 314 315 315 316 318 320 321 322 322 320 320 319 320 319 320 320 319 321 322
112 107 102 103 106 111 113 116 100 89 86 71 333 304 290 301 306 302 305 307 309 313 315 315 315 316 318 320 321 322 322 320 319 319 320 321 322 322 322 322 321 321 322
104 107 106 100 103 98 97 110 119 162 283 326 295 303 312 304 300 307 312 315 315 316 316 317 319 322 322 322 322 322 322 322 322 324 324 323 323 321 321 323 324 323 322
131 136 123 124 113 119 118 83 82 2 308 303 302 299 300 306 313 316 317 317 318 319 321 323 324 323 322 321 322 324 325 324 324 324 324 324 324 325 327 328 328 325 324